Regional Weather Roundup
Issued by NWS

Home | Current Version | Previous Version | Graphics & Text | Print | Product List | Glossary On
Versions: 1 2 3 4 5 6 7 8 9 10 11 12 13 14 15 16 17 18 19 20 21 22 23 24 25 26 27 28 29 30 31 32 33 34 35 36 37 38 39 40 41 42 43 44 45 46 47 48 49 50
000
ASUS43 KBIS 190810
RWRND

NORTH DAKOTA REGIONAL WEATHER ROUNDUP
NATIONAL WEATHER SERVICE BISMARCK ND
300 AM CDT TUE SEP 19 2017

NOTE: "FAIR" INDICATES FEW OR NO CLOUDS BELOW 12,000 FEET WITH NO
SIGNIFICANT WEATHER AND/OR OBSTRUCTIONS TO VISIBILITY.


NDZ001>003-009>011-017-190900-
NORTHWEST NORTH DAKOTA

CITY           SKY/WX    TMP DP  RH WIND       PRES   REMARKS
WILLISTON      MOCLDY    62  42  47 SE14G20   29.55F
MINOT          CLEAR     50  48  93 E7        29.68F
MINOT AFB      PTCLDY    50  48  94 E9        29.67F
$$

NDZ018>021-031>035-040>046-190900-
SOUTHWEST NORTH DAKOTA

CITY           SKY/WX    TMP DP  RH WIND       PRES   REMARKS
BISMARCK       CLOUDY    53  49  86 NE8       29.70F
DICKINSON      CLOUDY    61  47  59 SE20G26   29.56F
GARRISON         N/A     55  48  77 SE9       29.67F
HETTINGER ARPT CLOUDY    62  49  62 SE20G25   29.59F
$$

NDZ004>008-012>016-024-026-027-054-190900-
NORTHEAST NORTH DAKOTA

CITY           SKY/WX    TMP DP  RH WIND       PRES   REMARKS
GRAND FORKS    CLOUDY    59  59 100 SE8       29.80F FOG
GRND FRKS AFB  CLOUDY    59  57  94 SE8       29.81F
DEVILS LAKE    CLOUDY    57  57 100 SE12      29.77S FOG
$$

NDZ022-023-025-028>030-036>039-047>053-190900-
SOUTHEAST NORTH DAKOTA

CITY           SKY/WX    TMP DP  RH WIND       PRES   REMARKS
FARGO          CLOUDY    61  59  93 SE14G24   29.81F
JAMESTOWN      FOG       54  53  97 SE5       29.76S VSB 1/4
$$





USA.gov is the U.S. government's official web portal to all federal, state and local government web resources and services.